Regional Weather Roundup
Issued by NWS Goodland, KS

Home | Current Version | Previous Version | Text Only | Print | Product List | Glossary Off
Versions: 1 2 3 4 5 6 7 8 9 10 11 12 13 14 15 16 17 18 19 20 21 22 23 24 25 26 27 28 29 30 31 32 33 34 35 36 37 38 39 40 41 42 43 44 45 46 47 48 49 50

000
ASUS43 KGLD 221308
RWRGLD

GOODLAND FORECAST AREA HOURLY WEATHER ROUNDUP
NATIONAL WEATHER SERVICE GOODLAND KS
700 AM MDT TUE AUG 22 2017

...OFFICIAL OBSERVATIONS...

CITY           SKY/WX    TMP DP  RH WIND       PRES   REMARKS
GOODLAND KS    CLOUDY    62  62 100 NE9       30.27R
HILL CITY KS   CLOUDY    65  63  93 N13       30.21R
IMPERIAL NEB   CLEAR     56  53  90 N7        30.27R
MCCOOK NEB     SUNNY     61  57  87 CALM      30.24R
AKRON CO       CLOUDY    57  55  93 SE10      30.33R FOG
BURLINGTON CO  MOCLDY    60  59  96 NE8       30.30R FOG
LIMON CO       CLOUDY    58  56  93 E7        30.36R
$$

...UNOFFICIAL OBSERVATIONS...

CITY           SKY/WX    TMP DP  RH WIND       PRES   REMARKS
LENORA KS        N/A     63  32  31 NE5         N/A
NORTON KS      SUNNY     61  55  82 N12       30.21
TRENTON NEB      N/A     60  32  34 NE6         N/A
KIT CARSON CO    N/A     61  57  85 MISG        N/A
YUMA CO        CLOUDY    59  50  72 NE3       30.31R HAZE
$$




USA.gov is the U.S. government's official web portal to all federal, state and local government web resources and services.